This demonstration page uses our WeatherBlox Daily Observations layout. Learn more.

Left ArrowRight Arrow

39.51506, -84.39828

Hourly Observations for September 9, 2020

Temp ( °F °C ) Dew Point ( °F °C ) Humidity (%) Winds ( mph kmh ) Pressure ( in mb ) Visibility ( mi km ) Precip ( " mm )
12:15 am 00:15 Clear 67 19.5 66 19.1 98 98 Calm 30.12 1020 10 16.0934 0 0
12:35 am 00:35 Clear 68 19.9 66 18.9 94 94 Calm 30.12 1020 10 16.0934 0 0
12:55 am 00:55 Clear 66 19.1 66 18.7 98 98 Calm 30.13 1020 10 16.0934 0 0
1:15 am 01:15 Clear 65 18.3 65 18.1 99 99 Calm 30.13 1020 10 16.0934 0 0
1:35 am 01:35 Clear 64 18 64 17.7 98 98 Calm 30.12 1020 10 16.0934 0 0
1:55 am 01:55 Clear 64 18 64 18 100 100 N 3 6 30.13 1020 10 16.0934 0 0
2:15 am 02:15 Clear 65 18.3 65 18.2 99 99 Calm 30.12 1020 10 16.0934 0 0
2:35 am 02:35 Clear 65 18.3 65 18.1 99 99 Calm 30.11 1020 10 16.0934 0 0
2:55 am 02:55 Clear 64 18 63 17 94 94 Calm 30.12 1020 10 16.0934 0 0
3:15 am 03:15 Clear 64 17.9 64 17.9 100 100 Calm 30.12 1020 10 16.0934 0 0
3:35 am 03:35 Clear 64 17.9 64 17.9 100 100 Calm 30.12 1020 7 11.26538 0 0
3:55 am 03:55 Clear 64 18 63 17 94 94 Calm 30.12 1020 10 16.0934 0 0
4:15 am 04:15 Clear 63 17 N/A N/A Calm 30.13 1020 10 16.0934 0 0
4:35 am 04:35 Clear 63 17 N/A N/A Calm 30.12 1020 10 16.0934 0 0
4:55 am 04:55 Hazy 63 17 N/A N/A Calm 30.13 1020 5 8.0467 0 0
5:15 am 05:15 Clear 63 17 N/A N/A Calm 30.13 1020 10 16.0934 0 0
5:35 am 05:35 Clear 63 17 N/A N/A Calm 30.14 1021 10 16.0934 0 0
5:55 am 05:55 Clear 63 17 N/A N/A Calm 30.15 1021 10 16.0934 0 0
6:15 am 06:15 Clear 63 17 N/A N/A Calm 30.15 1021 10 16.0934 0 0
6:35 am 06:35 Clear 63 17 N/A N/A Calm 30.15 1021 10 16.0934 0 0
6:55 am 06:55 Clear 61 16 N/A N/A NNE 3 6 30.16 1021 10 16.0934 0 0
7:15 am 07:15 Sunny 63 17 N/A N/A Calm 30.17 1022 7 11.26538 0 0
7:35 am 07:35 Sunny 63 17 N/A N/A Calm 30.18 1022 7 11.26538 0 0
7:55 am 07:55 Hazy 63 17 N/A N/A Calm 30.18 1022 7 11.26538 0 0
8:15 am 08:15 Hazy 64 18 N/A N/A Calm 30.18 1022 7 11.26538 0 0
8:35 am 08:35 Sunny 65 18.4 65 18.4 100 100 Calm 30.19 1022 10 16.0934 0 0
8:55 am 08:55 Sunny 67 19.5 66 19 97 97 Calm 30.19 1022 10 16.0934 0 0
9:15 am 09:15 Sunny 69 20.7 67 19.5 93 93 Calm 30.18 1022 10 16.0934 0 0
9:35 am 09:35 Sunny 71 21.8 67 19.6 87 87 Calm 30.19 1022 10 16.0934 0 0
9:55 am 09:55 Sunny 73 23 68 19.9 83 83 ENE 3 6 30.19 1022 10 16.0934 0 0
10:15 am 10:15 Sunny 76 24.2 68 20.1 78 78 NNE 3 6 30.18 1022 10 16.0934 0 0
10:35 am 10:35 Hazy 78 25.4 68 20 72 72 ENE 3 6 30.19 1022 2 3.21868 0 0
10:55 am 10:55 Sunny 80 26.4 68 20.1 68 68 NNE 5 7 30.19 1022 10 16.0934 0 0
11:15 am 11:15 Sunny 82 27.7 68 20.2 64 64 ESE 5 7 30.19 1022 10 16.0934 0 0
11:35 am 11:35 Sunny 83 28.6 67 19.6 58 58 ESE 5 7 30.18 1022 10 16.0934 0 0
11:55 am 11:55 Sunny 85 29.4 68 19.8 56 56 ESE 3 6 30.18 1022 10 16.0934 0 0
12:15 pm 12:15 Sunny 85 29.6 66 18.8 52 52 ESE 5 7 30.18 1022 10 16.0934 0 0
12:35 pm 12:35 Sunny 86 30.2 66 19 51 51 S 3 6 30.17 1022 10 16.0934 0 0
12:55 pm 12:55 Sunny 87 30.4 65 18.4 49 49 SSE 3 6 30.17 1022 10 16.0934 0 0
1:15 pm 13:15 Mostly Cloudy 87 30.8 66 19 49 49 E 7 11 30.16 1021 10 16.0934 0.01 0.254
1:35 pm 13:35 Partly Cloudy 87 30.8 65 18.4 48 48 Calm 30.16 1021 10 16.0934 0.01 0.254
1:55 pm 13:55 Mostly Cloudy 88 31.3 67 19.2 49 49 Calm 30.15 1021 10 16.0934 0.01 0.254
2:15 pm 14:15 Partly Cloudy 87 30.7 67 19.4 51 51 NE 7 11 30.14 1021 10 16.0934 0 0
2:35 pm 14:35 Mostly Cloudy 91 32.6 66 19.1 45 45 E 10 17 30.14 1021 10 16.0934 0 0
2:55 pm 14:55 Partly Cloudy 90 32 65 18.1 44 44 SE 3 6 30.14 1021 10 16.0934 0 0
3:15 pm 15:15 Hazy 89 31.4 64 17.6 44 44 SSE 7 11 30.13 1020 4 6.43736 0 0
3:35 pm 15:35 Partly Cloudy 89 31.6 64 17.8 44 44 SE 8 13 30.12 1020 10 16.0934 0 0
3:55 pm 15:55 Partly Cloudy 90 32.4 64 17.7 41 41 SE 10 17 30.12 1020 10 16.0934 0 0
4:15 pm 16:15 Sunny 90 32.3 64 17.9 42 42 ESE 9 15 30.12 1020 10 16.0934 0 0
4:35 pm 16:35 Sunny 90 32 63 17 41 41 ESE 7 11 30.12 1020 10 16.0934 0 0
4:55 pm 16:55 Sunny 90 32.4 58 14.7 34 34 SSE 6 9 30.12 1020 10 16.0934 0 0
5:15 pm 17:15 Sunny 89 31.9 60 15.7 38 38 SE 8 13 30.12 1020 10 16.0934 0 0
5:35 pm 17:35 Sunny 88 31.3 63 17 42 42 SSE 8 13 30.12 1020 10 16.0934 0 0
5:55 pm 17:55 Sunny 88 31.1 63 17.3 44 44 SSE 10 17 30.12 1020 10 16.0934 0 0
6:15 pm 18:15 Sunny 87 30.7 64 17.5 45 45 SE 8 13 30.13 1020 10 16.0934 0 0
6:35 pm 18:35 Sunny 87 30.4 64 17.5 46 46 SE 7 11 30.13 1020 10 16.0934 0 0
6:55 pm 18:55 Sunny 85 29.7 64 17.9 49 49 SE 9 15 30.14 1021 10 16.0934 0 0
7:15 pm 19:15 Sunny 84 29.1 65 18.1 52 52 SE 8 13 30.14 1021 10 16.0934 0 0
7:35 pm 19:35 Sunny 83 28.3 65 18.1 54 54 SSE 8 13 30.16 1021 10 16.0934 0 0
7:55 pm 19:55 Sunny 82 27.8 66 18.7 58 58 SSE 5 7 30.16 1021 10 16.0934 0 0
8:15 pm 20:15 Clear 81 27.3 66 19 61 61 SE 5 7 30.16 1021 10 16.0934 0 0
8:35 pm 20:35 Clear 80 26.9 67 19.2 63 63 SE 3 6 30.17 1022 10 16.0934 0 0
8:55 pm 20:55 Clear 76 24.4 67 19.3 73 73 Calm 30.17 1022 10 16.0934 0 0
9:15 pm 21:15 Clear 73 22.5 67 19.7 84 84 Calm 30.19 1022 10 16.0934 0 0
9:35 pm 21:35 Clear 70 21.3 67 19.2 88 88 Calm 30.19 1022 10 16.0934 0 0
9:55 pm 21:55 Clear 69 20.6 67 19.3 92 92 Calm 30.2 1023 10 16.0934 0 0
10:15 pm 22:15 Clear 71 21.4 67 19.2 87 87 Calm 30.19 1022 10 16.0934 0 0
10:35 pm 22:35 Clear 69 20.5 67 19.5 94 94 Calm 30.2 1023 10 16.0934 0 0
10:55 pm 22:55 Clear 69 20.7 67 19.6 93 93 Calm 30.2 1023 10 16.0934 0 0
11:15 pm 23:15 Clear 69 20.5 67 19.4 93 93 Calm 30.2 1023 10 16.0934 0 0
11:35 pm 23:35 Clear 67 19.5 66 19.1 98 98 Calm 30.22 1023 10 16.0934 0 0
11:55 pm 23:55 Clear 68 19.8 66 19.1 96 96 Calm 30.22 1023 10 16.0934 0 0

Powered by AerisWeather